This demonstration page uses our WeatherBlox Daily Observations layout. Learn more.

Left ArrowRight Arrow

39.12711, -84.51439

Hourly Observations for July 30, 2021

Temp ( °F °C ) Dew Point ( °F °C ) Humidity (%) Winds ( mph kmh ) Pressure ( in mb ) Visibility ( mi km ) Precip ( " mm )
12:53 am 00:53 Mostly Cloudy 80 26.7 73 22.8 79 79 WNW 7 11 29.91 1013 10 16 N/A
1:53 am 01:53 Mostly Cloudy 79 26.1 73 22.8 82 82 NNW 6 9 29.92 1013 10 16 N/A
2:53 am 02:53 Mostly Clear 78 25.6 72 22.2 82 82 NNW 9 15 29.94 1014 10 16 N/A
3:53 am 03:53 Clear 77 25 70 21.1 79 79 NNW 5 7 29.94 1014 10 16 N/A
4:53 am 04:53 Clear 75 23.9 70 21.1 84 84 N 7 11 29.95 1014 10 16 N/A
5:45 am 05:45 Mostly Cloudy 74 23.3 69 20.6 85 85 N 6 9 29.96 1015 10 16 N/A
5:53 am 05:53 Mostly Cloudy 75 23.9 69 20.6 82 82 N 6 9 29.96 1015 10 16 N/A
6:53 am 06:53 Mostly Cloudy 73 22.8 68 20 84 84 N N/A 29.99 1016 8 13 N/A
7:53 am 07:53 Mostly Cloudy 74 23.3 68 20 82 82 N 6 9 30.00 1016 8 13 N/A
8:53 am 08:53 Mostly Cloudy 75 23.9 68 20 79 79 N 12 19 30.01 1016 8 13 N/A
9:53 am 09:53 Mostly Sunny 77 25 67 19.4 71 71 NE 12 19 30.01 1016 9 14 N/A
10:53 am 10:53 Sunny 80 26.7 66 18.9 62 62 NNE 7 11 30.03 1017 10 16 N/A
11:53 am 11:53 Partly Cloudy 81 27.2 64 17.8 57 57 ENE 8 13 30.03 1017 10 16 N/A
12:53 pm 12:53 Mostly Cloudy 82 27.8 66 18.9 58 58 NNW 9 15 30.03 1017 9 14 N/A
1:53 pm 13:53 Partly Cloudy 85 29.4 66 18.9 53 53 NNW 7 11 30.02 1017 9 14 N/A
2:53 pm 14:53 Partly Cloudy 85 29.4 63 17.2 48 48 NNE 10 17 30.02 1017 8 13 N/A
3:53 pm 15:53 Sunny 85 29.4 61 16.1 45 45 NNE 8 13 30.01 1016 10 16 N/A
4:53 pm 16:53 Mostly Sunny 85 29.4 62 16.7 46 46 N 9 15 30.01 1016 8 13 N/A
5:53 pm 17:53 Sunny 84 28.9 59 15 43 43 VRB 7 11 30.01 1016 7 11 N/A
6:53 pm 18:53 Hazy 82 27.8 59 15 46 46 NNW 9 15 30.01 1016 6 10 N/A
7:53 pm 19:53 Sunny 79 26.1 58 14.4 49 49 N 9 15 30.01 1016 8 13 N/A
8:53 pm 20:53 Clear 76 24.4 57 13.9 52 52 N 7 11 30.01 1016 10 16 N/A
9:53 pm 21:53 Clear 72 22.2 59 15 64 64 NE 3 6 30.03 1017 10 16 N/A
10:53 pm 22:53 Clear 69 20.6 61 16.1 76 76 N N/A 30.05 1018 10 16 N/A
11:53 pm 23:53 Clear 66 18.9 62 16.7 87 87 N N/A 30.06 1018 10 16 N/A

Powered by AerisWeather